[[{"header":{"parameterUnit":"m.s-1","parameterCategory":1,"la1":30.2991,"la2":30.254,"lo1":-89.0895,"lo2":-89.0444,"dy":0.0017,"dx":0.0017,"nx":28,"ny":28,"refTime":"2024-08-15T03:00:00:Z","depth":0,"parameterNumber":2,"parameterNumberName":"U-component_of_WINDS"},"data":[0,0,0,0,0,0,0,0,0,0,0,0,0,0,0,0,0,0,0,0,0,0,0,0,0,0,0,0,0,0,0,0,0,0,0,0,0,0,0,0,0,0,0,0,0,0,0,0,0,0,0,0,0,0,0,0,0,0,3.6526,3.6526,0,3.6551,3.6551,3.6551,3.6454,3.6451,3.6448,3.6445,3.6468,3.6471,3.6475,0,0,0,0,0,0,0,0,0,0,0,0,0,3.639,3.6393,3.6526,3.6526,3.6527,3.6551,3.6551,3.6551,3.6454,3.6451,3.6447,3.6444,3.6467,3.6471,3.6475,0,0,0,0,0,0,0,0,0,0,0,0,0,3.6436,3.6394,3.6526,3.6481,3.6477,3.6551,3.6551,3.6551,3.6455,3.6451,3.6446,3.6442,3.6466,3.6471,3.6475,3.6592,0,0,3.649,3.6493,0,0,0,0,0,0,0,0,3.6433,3.6441,3.6487,3.6484,3.648,3.6495,3.6511,3.6565,3.6456,3.6464,3.6445,3.644,3.648,3.6484,3.6498,3.6593,3.6594,3.6491,3.6494,3.6496,3.6497,0,0,0,0,0,0,0,3.643,3.6439,3.6536,3.6488,3.6484,3.6458,3.646,3.6521,3.6496,3.6463,3.6456,3.646,3.6477,3.6493,3.6498,3.6594,3.6491,3.6495,3.6498,3.65,3.6784,3.6789,0,0,0,0,0,0,3.6433,3.6437,3.6535,3.6536,3.6446,3.6464,3.6466,3.6494,3.6495,3.6491,3.6464,3.6455,3.6487,3.6492,3.6498,3.6634,3.6496,3.6501,3.6503,3.678,3.6785,3.679,0,0,0,0,0,0,3.6431,3.6443,3.6534,3.6485,3.6494,3.6471,3.6504,3.6497,3.6513,3.6496,3.649,3.6485,3.6484,3.6491,3.6569,3.6633,3.6503,3.6507,3.6774,3.6782,3.6788,3.6907,0,0,0,0,0,0,3.6427,3.6443,3.6488,3.6487,3.6497,3.6606,3.6508,3.6501,3.6522,3.6511,3.6514,3.651,3.6481,3.6562,3.6574,3.6637,3.6511,3.6769,3.6778,3.6786,3.6897,3.6917,3.6934,0,0,0,0,0,3.6423,3.652,3.6491,3.6503,3.6554,3.661,3.6616,3.6581,3.6528,3.6572,3.656,3.651,3.6624,3.6571,3.6583,3.6649,3.6764,3.6775,3.6785,3.6889,3.6913,3.6933,0,0,0,0,0,0,3.653,3.652,3.6487,3.6587,3.66,3.6594,3.6649,3.6608,3.6637,3.6625,3.658,3.6581,3.6667,3.6665,3.6607,3.6761,3.6685,3.6698,3.6759,3.6782,3.68,3.6799,3.6515,0,0,0,0,0,3.6565,3.6613,3.6601,3.669,3.6699,3.6673,3.6696,3.6668,3.6679,3.6684,3.6678,3.6691,3.6729,3.6755,3.679,3.6896,3.6894,3.6947,3.6965,3.698,3.6993,3.7047,3.707,3.6824,3.6824,3.6824,0,0,3.6639,3.6639,3.6672,3.6712,3.6719,3.6768,3.6678,3.6734,3.677,3.6692,3.6766,3.6762,3.6772,3.6865,3.6905,3.6866,3.706,3.6994,3.7006,3.701,3.706,3.7084,3.7104,3.6831,3.683,3.6829,0,0,3.6797,3.6803,3.6877,3.6886,3.6897,3.6879,3.6897,3.6896,3.6891,3.6964,3.6906,3.6947,3.7014,3.7024,3.7038,3.7197,3.7152,3.721,3.7306,3.736,3.7379,3.7396,3.7452,3.7473,3.7222,3.7222,3.7222,0,3.6887,3.696,3.6921,3.698,3.6999,3.6931,3.7005,3.7015,3.7037,3.7051,3.7007,3.7089,3.7091,3.7184,3.7223,3.7237,3.7254,3.721,3.738,3.7396,3.7411,3.7465,3.7486,3.7229,3.7228,3.7227,3.7227,0,3.7069,3.712,3.7178,3.7202,3.7226,3.7293,3.7263,3.7292,3.7261,3.7247,3.7321,3.7321,3.7354,3.7373,3.7344,3.7462,3.7437,3.7388,3.731,3.7443,3.7492,3.7512,3.7239,3.7236,3.7234,3.7233,0,0,3.7298,3.7297,3.7319,3.7328,3.7335,3.7373,3.7435,3.7467,3.7493,3.751,3.756,3.7618,3.7571,3.7587,3.7557,3.7604,3.773,3.7548,3.7547,3.7582,3.7859,3.7896,3.7921,3.7699,3.7703,3.7706,3.7858,0,3.7454,3.7561,3.7527,3.7635,3.7681,3.7616,3.7669,3.7679,3.7667,3.7703,3.7688,3.773,3.7666,3.7674,3.7718,3.7705,3.7785,3.7694,3.7745,3.7747,3.7745,3.7946,3.7987,3.813,3.7877,3.788,3.7882,0,3.765,3.7675,3.7788,3.7785,3.7803,3.7852,3.7878,3.7913,3.7921,3.7909,3.7926,3.7885,3.7945,3.7867,3.7947,3.7886,3.7904,3.7901,3.7906,3.7909,3.7823,3.7955,3.8175,3.8197,3.7912,3.791,3.7908,0,3.7805,3.7866,3.7942,3.7951,3.795,3.7986,3.7986,3.799,3.8011,3.8033,3.8046,3.8074,3.809,3.8112,3.808,3.8027,3.8165,3.8085,3.8156,3.8157,3.8189,3.8187,3.8415,3.8201,3.8201,3.82,3.82,0,3.7983,3.8055,3.8011,3.8058,3.8135,3.8093,3.8171,3.8164,3.8167,3.821,3.8155,3.8196,3.8151,3.8188,3.8163,3.8233,3.8241,3.8232,3.8224,3.8237,3.8238,3.8249,3.8238,3.8206,3.8205,3.8203,3.8203,0,3.817,3.8144,3.8221,3.8213,3.8212,3.827,3.8262,3.8304,3.8287,3.8341,3.8352,3.8325,3.8365,3.8335,3.8375,3.8358,3.845,3.8429,3.8448,3.8442,3.8515,3.8509,3.8757,3.8787,3.8555,3.8557,3.8559,0,3.8286,3.8339,3.8336,3.8361,3.8365,3.8406,3.8427,3.8386,3.841,3.8422,3.8462,3.8497,3.8523,3.859,3.8574,3.8603,3.8582,3.8667,3.8586,3.8597,3.8583,3.858,3.8585,3.8684,3.8687,3.8689,3.8691,0,3.8493,3.8477,3.8509,3.8537,3.8563,3.8582,3.8597,3.862,3.8579,3.8608,3.8648,3.8669,3.8708,3.8744,3.8767,3.8767,3.8722,3.8716,3.8734,3.8748,3.8756,3.8752,3.8493,3.8711,3.8709,3.8707,3.8706,3.8705,3.8648,3.8692,3.8696,3.8733,3.874,3.8754,3.8793,3.878,3.8813,3.8842,3.8816,3.8864,3.8868,3.8895,3.89,3.8936,3.8901,3.8927,3.8934,3.8941,3.8951,3.875,3.894,3.894,3.8939,3.8939,3.8938,0,3.8852,3.8851,3.8885,3.8908,3.8936,3.8891,3.8904,3.8931,3.8974,3.8982,3.9009,3.9054,3.9087,3.9073,3.9102,3.9134,3.9114,3.9143,3.914,3.9141,3.8981,3.8963,3.9159,3.9159,3.9159,3.9159,3.9159,3.9158,3.8962,3.9033,3.9017,3.909,3.9088,3.9135,3.9146,3.9159,3.9165,3.9218,3.9245,3.9235,3.9234,3.9262,3.929,3.9285,3.9298,3.9335,3.9323,3.9174,3.9152,3.9132,3.9114,3.9338,3.9338,3.9479,3.948,3.9481]},{"header":{"parameterUnit":"m.s-1","parameterCategory":1,"la1":30.2991,"la2":30.254,"lo1":-89.0895,"lo2":-89.0444,"dy":0.0017,"dx":0.0017,"nx":28,"ny":28,"refTime":"2024-08-15T03:00:00:Z","depth":0,"parameterNumber":3,"parameterNumberName":"V-component_of_WINDS"},"data":[0,0,0,0,0,0,0,0,0,0,0,0,0,0,0,0,0,0,0,0,0,0,0,0,0,0,0,0,0,0,0,0,0,0,0,0,0,0,0,0,0,0,0,0,0,0,0,0,0,0,0,0,0,0,0,0,0,0,2.0737,2.0732,0,2.0313,2.0308,2.0303,2.0109,2.0109,2.0109,2.011,1.9672,1.966,1.9648,0,0,0,0,0,0,0,0,0,0,0,0,0,2.1374,2.1363,2.0738,2.0732,2.0727,2.0314,2.0308,2.0302,2.0109,2.0109,2.011,2.011,1.9676,1.9662,1.9647,0,0,0,0,0,0,0,0,0,0,0,0,0,2.1039,2.136,2.0738,2.0581,2.0562,2.0315,2.0308,2.0301,2.0109,2.0109,2.011,2.011,1.9681,1.9663,1.9645,1.9522,0,0,1.959,1.9582,0,0,0,0,0,0,0,0,2.1058,2.1015,2.0609,2.0591,2.057,2.0264,2.0372,2.004,2.0108,2.0281,2.011,2.0111,1.9868,1.9835,1.9754,1.9502,1.9483,1.9589,1.9578,1.957,1.9565,0,0,0,0,0,0,0,2.1081,2.1033,2.0569,2.0603,2.0579,2.0529,2.0482,2.0308,2.0076,2.0266,2.0251,2.0203,1.9858,1.9772,1.9742,1.9477,1.9589,1.9573,1.9562,1.9555,1.9097,1.9096,0,0,0,0,0,0,2.1131,2.1053,2.0583,2.0557,2.082,2.0517,2.0465,2.0362,2.0078,2.0035,2.0203,2.0196,1.9802,1.9764,1.9726,1.9559,1.957,1.9553,1.9543,1.9098,1.9097,1.9095,0,0,0,0,0,0,2.1145,2.1091,2.06,2.08,2.0734,2.0506,2.0392,2.0353,2.0267,2.003,1.9988,2.0158,1.9801,1.9752,1.9573,1.9542,1.9545,1.9529,1.91,1.9098,1.9096,1.9228,0,0,0,0,0,0,2.1165,2.1097,2.105,2.0801,2.0724,2.0456,2.039,2.0344,2.0237,2.0223,1.9977,1.9937,1.9798,1.9602,1.9556,1.9517,1.9515,1.9102,1.9099,1.9097,1.9226,1.9231,1.9236,0,0,0,0,0,2.1188,2.1104,2.1048,2.0993,2.066,2.0455,2.0411,2.0254,2.0235,2.0184,2.0031,1.9944,1.9554,1.9585,1.9532,1.9487,1.9103,1.91,1.9097,1.9223,1.923,1.9236,0,0,0,0,0,0,2.1354,2.1069,2.1004,2.0837,2.0672,2.0423,2.0353,2.0267,2.0103,2.0096,1.9908,1.9854,1.9692,1.9572,1.9612,1.9351,1.932,1.9306,1.9435,1.9439,1.9444,1.9474,1.95,0,0,0,0,0,2.1372,2.1231,2.0988,2.0864,2.0785,2.0584,2.0489,2.0382,2.0203,2.0132,1.9966,1.9795,1.9632,1.9529,1.9368,1.9209,1.915,1.9151,1.9157,1.9162,1.9151,1.9053,1.905,1.9085,1.9085,1.9086,0,0,2.1406,2.1232,2.1155,2.0893,2.0753,2.0608,2.0526,2.0378,2.0268,2.0109,1.9929,1.9803,1.9598,1.9429,1.9345,1.9323,1.9128,1.9158,1.9164,1.9149,1.905,1.9047,1.9044,1.9083,1.9084,1.9084,0,0,2.1393,2.125,2.1129,2.099,2.0778,2.0644,2.0616,2.0379,2.0288,2.0106,1.9982,1.9849,1.9575,1.9432,1.9325,1.9257,1.9169,1.921,1.9235,1.9142,1.9139,1.9136,1.9107,1.91,1.9201,1.9201,1.9201,0,2.1462,2.1241,2.1078,2.0934,2.0821,2.0672,2.0546,2.0419,2.0165,2.0089,2.0069,1.972,1.9572,1.9365,1.9348,1.9267,1.9226,1.9235,1.9153,1.9148,1.9142,1.9113,1.9103,1.9207,1.9206,1.9206,1.9205,0,2.1334,2.1182,2.111,2.0868,2.0747,2.0614,2.0429,2.0326,2.023,2.0098,1.9912,1.973,1.9527,1.947,1.9375,1.9248,1.9241,1.919,1.9154,1.9148,1.9117,1.9105,1.9216,1.9213,1.9212,1.921,0,0,2.1413,2.1082,2.1058,2.0945,2.0699,2.0578,2.0437,2.0239,2.0152,1.9983,1.9857,1.9628,1.9578,1.9456,1.9343,1.9263,1.9216,1.922,1.9212,1.9222,1.906,1.9097,1.9087,1.9158,1.9155,1.9153,1.9075,0,2.1364,2.1105,2.0953,2.0755,2.0611,2.0466,2.0342,2.0177,2.005,1.9908,1.9767,1.9606,1.9555,1.9479,1.9393,1.924,1.918,1.9244,1.9035,1.903,1.9087,1.9071,1.911,1.9046,1.9063,1.9061,1.9059,0,2.1272,2.1104,2.0893,2.066,2.0594,2.0486,2.029,2.0157,1.9966,1.9878,1.9742,1.9629,1.9471,1.9452,1.923,1.9277,1.9183,1.9095,1.9089,1.906,1.9042,1.9038,1.9022,1.9012,1.9039,1.9041,1.9042,0,2.1346,2.1068,2.0904,2.0812,2.0538,2.0465,2.0347,2.0157,2.0046,1.9875,1.9801,1.9614,1.9511,1.9368,1.9206,1.9208,1.9,1.8968,1.892,1.8924,1.8879,1.8884,1.8844,1.8827,1.8827,1.8827,1.8827,0,2.1305,2.118,2.0933,2.0832,2.0686,2.0512,2.0373,2.0243,2.0075,1.9944,1.9808,1.9688,1.9484,1.9338,1.9211,1.9045,1.9,1.8923,1.889,1.8933,1.8942,1.8865,1.8864,1.8824,1.8825,1.8825,1.8826,0,2.1362,2.1193,2.1003,2.0759,2.0695,2.0598,2.0388,2.0283,2.0149,1.9985,1.9936,1.9725,1.9546,1.9372,1.9132,1.9046,1.888,1.8838,1.8944,1.8925,1.8886,1.889,1.8792,1.8769,1.8773,1.8773,1.8773,0,2.1346,2.1246,2.0991,2.0893,2.0779,2.0625,2.051,2.0335,2.0221,1.9995,1.9916,1.9727,1.9566,1.9287,1.9111,1.8925,1.8876,1.8854,1.8847,1.8892,1.887,1.8876,1.8863,1.8858,1.8859,1.886,1.886,0,2.1333,2.1253,2.1094,2.0905,2.0773,2.0616,2.0454,2.0382,2.0174,2.0054,1.9869,1.9744,1.9498,1.9311,1.9105,1.8981,1.8884,1.8864,1.8842,1.8883,1.8947,1.8907,1.8952,1.8866,1.8866,1.8865,1.8865,1.8865,2.1349,2.1252,2.1056,2.0883,2.0742,2.0593,2.0482,2.0333,2.0176,1.9962,1.9868,1.9681,1.9489,1.9202,1.908,1.8929,1.8905,1.8876,1.8867,1.8861,1.8868,1.8975,1.8892,1.8891,1.8891,1.8891,1.889,0,2.1325,2.1192,2.1034,2.0811,2.0674,2.0597,2.0413,2.0303,2.014,1.9969,1.9813,1.9599,1.9416,1.9226,1.9032,1.8947,1.8898,1.8902,1.8904,1.8876,1.8903,1.8939,1.8945,1.8945,1.8945,1.8945,1.8945,1.8945,2.1296,2.1127,2.1024,2.0781,2.0648,2.0463,2.0364,2.0225,2.0087,1.9854,1.9702,1.9579,1.9399,1.919,1.9018,1.8966,1.8899,1.8915,1.8851,1.8878,1.8875,1.8872,1.8904,1.8903,1.8903,1.8836,1.8835,1.8835]}]]